Location: Brunsen
(51.8651°N, 9.8610°E)
Time: 00:30:58
(UTC+00:00)

DMSP 5D-2 F11 DEB - Visible Passes

Search period start: 10 July 2025 00:00
Search period end: 20 July 2025 00:00
Orbit: 829 x 887 km, 98.8° (Epoch: 08 July)

Date Brightness Start Highest point End Pass type
(mag) Time Alt. Az. Time Alt. Az. Time Alt. Az.
13 Jul ? 20:49:14 10° W 20:50:48 11° W 20:52:21 10° WNW visible
14 Jul ? 20:38:20 10° WSW 20:40:57 13° W 20:43:35 10° NW visible
15 Jul ? 20:27:50 10° SW 20:31:08 16° W 20:34:26 10° NW visible
16 Jul ? 20:17:31 10° SW 20:21:19 19° W 20:25:08 10° NW visible
